GW1372 Weather Reports


Display with metric or nautical units.
time (UTC)temp
F
wind
direction
speed
MPH
gust
MPH
rain 1hr
in
rain 24hr
in
rain mn
in
humidity
%
barometer
mb
20260507012004 59 14 1.0 2.0 0.00 0.00 0.00 71 1019.0
20260507011005 60 283 1.0 5.0 0.00 0.00 0.00 69 1019.1
20260507005004 60 145 0.0 5.0 0.00 0.00 0.00 70 1019.1
20260507003004 59 186 1.0 1.0 0.00 0.00 0.00 70 1019.2
20260507002004 59 197 0.0 3.0 0.00 0.00 0.00 70 1019.2
20260507001005 60 242 1.0 2.0 0.00 0.00 0.00 70 1019.3
20260507000005 60 338 1.0 3.0 0.00 0.00 0.00 70 1019.3
20260506235005 59 320 0.0 2.0 0.00 0.00 0.00 69 1019.2
20260506234005 60 176 0.0 3.0 0.00 0.00 0.00 68 1019.2
20260506233005 59 38 0.0 3.0 0.00 0.00 0.00 69 1019.2
20260506232004 59 193 1.0 2.0 0.00 0.00 0.00 69 1019.3
20260506231004 59 6 1.0 2.0 0.00 0.00 0.00 70 1019.3
20260506225005 58 243 0.0 3.0 0.00 0.00 0.00 71 1019.3
20260506224004 58 41 1.0 3.0 0.00 0.00 0.00 71 1019.4
20260506223005 58 32 2.0 5.0 0.00 0.00 0.00 70 1019.4
20260506222004 58 23 0.0 1.0 0.00 0.00 0.00 71 1019.4
20260506221004 59 218 1.0 3.0 0.00 0.00 0.00 71 1019.4
20260506220004 59 292 0.0 1.0 0.00 0.00 0.00 72 1019.3
20260506215006 59 220 2.0 2.0 0.00 0.00 0.00 72 1019.4
20260506214005 59 270 0.0 1.0 0.00 0.00 0.00 73 1019.4
20260506213005 58 294 0.0 1.0 0.00 0.00 0.00 74 1019.3
20260506212004 58 109 0.0 1.0 0.00 0.00 0.00 74 1019.4
20260506211005 58 176 0.0 2.0 0.00 0.00 0.00 75 1019.3
20260506210005 58 278 1.0 2.0 0.00 0.00 0.00 75 1019.4
20260506205005 58 31 0.0 1.0 0.00 0.00 0.00 75 1019.3
20260506204004 58 300 1.0 2.0 0.00 0.00 0.00 75 1019.4
20260506203005 58 199 1.0 2.0 0.00 0.00 0.00 76 1019.3
20260506202004 58 95 0.0 1.0 0.00 0.00 0.00 78 1019.4
20260506201005 57 278 0.0 1.0 0.00 0.00 0.00 78 1019.3
20260506200005 57 184 0.0 1.0 0.00 0.00 0.00 79 1019.3
20260506195005 57 109 0.0 3.0 0.00 0.00 0.00 80 1019.2
20260506194004 57 270 0.0 1.0 0.00 0.00 0.00 81 1019.1
20260506193005 57 16 0.0 0.0 0.00 0.00 0.00 81 1019.0
20260506191005 57 219 0.0 2.0 0.00 0.00 0.00 81 1019.0
20260506190005 57 13 0.0 1.0 0.00 0.00 0.00 82 1018.9
20260506185004 57 24 0.0 1.0 0.00 0.00 0.00 82 1019.1
20260506184004 57 248 0.0 2.0 0.00 0.00 0.00 82 1019.1
20260506183005 57 179 0.0 0.0 0.00 0.00 0.00 83 1019.1
20260506182005 57 179 0.0 2.0 0.00 0.00 0.00 83 1019.1
20260506181004 57 292 0.0 2.0 0.00 0.00 0.00 84 1018.9
20260506180005 57 69 1.0 2.0 0.00 0.00 0.00 84 1018.8
20260506175005 57 20 0.0 0.0 0.00 0.00 0.00 85 1018.9
20260506174005 56 20 0.0 0.0 0.00 0.00 0.00 86 1018.8
20260506172005 56 282 0.0 0.0 0.00 0.00 0.00 87 1019.2
20260506171005 56 282 0.0 1.0 0.00 0.00 0.00 88 1019.1
20260506165005 56 251 0.0 2.0 0.00 0.00 0.00 87 1019.0
20260506163004 56 38 0.0 0.0 0.00 0.00 0.00 88 1018.6
20260506162004 56 38 0.0 0.0 0.00 0.00 0.00 88 1018.4
20260506160005 56 191 0.0 0.0 0.00 0.00 0.00 88 1018.5
20260506155004 56 191 0.0 0.0 0.00 0.00 0.00 88 1018.6
20260506154004 56 196 0.0 1.0 0.00 0.00 0.00 88 1018.8
20260506153004 56 215 0.0 2.0 0.00 0.00 0.00 87 1018.7
20260506152004 56 61 0.0 0.0 0.00 0.00 0.00 87 1018.5
20260506150005 56 61 0.0 0.0 0.00 0.00 0.00 87 1018.3
20260506144005 56 61 0.0 0.0 0.00 0.00 0.00 86 1018.5
20260506143005 56 61 0.0 0.0 0.00 0.00 0.00 86 1018.4
20260506142005 56 61 0.0 2.0 0.00 0.00 0.00 85 1018.1
20260506141004 56 44 0.0 1.0 0.00 0.00 0.00 85 1018.1
20260506140005 56 304 0.0 0.0 0.00 0.00 0.00 84 1018.3
20260506135004 56 304 0.0 0.0 0.00 0.00 0.00 84 1018.2
20260506134004 56 304 0.0 1.0 0.00 0.00 0.00 83 1018.2
20260506133005 56 11 0.0 0.0 0.00 0.00 0.00 83 1018.0
20260506132005 56 11 0.0 0.0 0.00 0.00 0.00 83 1018.0
20260506131005 56 11 0.0 0.0 0.00 0.00 0.00 82 1017.5
20260506130005 56 11 0.0 0.0 0.00 0.00 0.00 82 1017.7
20260506125005 56 11 0.0 0.0 0.00 0.00 0.00 81 1017.6
20260506124004 56 11 0.0 0.0 0.00 0.00 0.00 81 1017.5
20260506123004 56 11 0.0 0.0 0.00 0.00 0.00 81 1017.4
20260506122004 56 11 0.0 0.0 0.00 0.00 0.00 80 1017.4
20260506121005 56 11 0.0 0.0 0.00 0.00 0.00 81 1017.4
20260506120005 56 11 0.0 0.0 0.00 0.00 0.00 80 1017.3
20260506115004 56 11 0.0 0.0 0.00 0.00 0.00 80 1017.2
20260506114005 56 11 0.0 0.0 0.00 0.00 0.00 80 1017.1
20260506113005 56 11 0.0 0.0 0.00 0.00 0.00 80 1017.1
20260506112004 56 11 0.0 2.0 0.00 0.00 0.00 80 1017.1
20260506111005 56 182 0.0 1.0 0.00 0.00 0.00 80 1016.9
20260506110005 56 299 0.0 1.0 0.00 0.00 0.00 80 1016.9
20260506105005 56 298 1.0 2.0 0.00 0.00 0.00 80 1016.8
20260506104004 56 193 0.0 1.0 0.00 0.00 0.00 80 1016.7
20260506103004 56 241 0.0 1.0 0.00 0.00 0.00 80 1016.6
20260506102004 57 289 0.0 1.0 0.00 0.00 0.00 80 1016.6
20260506101004 57 213 0.0 1.0 0.00 0.00 0.00 80 1016.5
20260506100005 56 248 0.0 1.0 0.00 0.00 0.00 81 1016.4
20260506095005 57 48 0.0 0.0 0.00 0.00 0.00 81 1016.3
20260506093005 56 241 0.0 2.0 0.00 0.00 0.00 82 1016.2
20260506092004 56 184 0.0 2.0 0.00 0.00 0.00 83 1016.1
20260506091004 55 299 0.0 1.0 0.00 0.00 0.00 84 1016.0
20260506090004 54 181 0.0 0.0 0.00 0.00 0.00 85 1016.0
20260506085004 54 181 0.0 0.0 0.00 0.00 0.00 86 1015.9
20260506084005 53 181 0.0 0.0 0.00 0.00 0.00 86 1015.8
20260506082005 53 181 0.0 0.0 0.00 0.00 0.00 85 1015.7
20260506081005 54 181 0.0 0.0 0.00 0.00 0.00 85 1015.7
20260506072004 54 181 0.0 0.0 0.00 0.00 0.00 84 1015.5
20260506062004 56 181 0.0 0.0 0.00 0.00 0.00 82 1015.0
20260506061005 56 181 0.0 0.0 0.00 0.00 0.00 81 1014.8
20260506051004 57 181 0.0 0.0 0.00 0.00 0.00 80 1014.3
20260506045004 58 181 0.0 0.0 0.00 0.00 0.00 79 1014.2
20260506044004 58 181 0.0 0.0 0.00 0.00 0.00 78 1014.1
20260506043005 59 181 0.0 0.0 0.00 0.00 0.00 77 1014.1
20260506042005 59 181 0.0 0.0 0.00 0.00 0.00 76 1014.1
20260506041005 60 181 0.0 0.0 0.00 0.00 0.00 74 1013.9
20260506035004 62 181 0.0 0.0 0.00 0.00 0.00 71 1013.8
20260506034004 62 181 0.0 0.0 0.00 0.00 0.00 70 1013.7
20260506033005 63 181 0.0 0.0 0.00 0.00 0.00 68 1013.6
20260506032004 64 181 0.0 0.0 0.00 0.00 0.00 67 1013.6
20260506030005 65 181 0.0 1.0 0.00 0.00 0.00 65 1013.5
20260506025004 65 160 0.0 3.0 0.00 0.00 0.00 64 1013.4
20260506024005 65 251 0.0 2.0 0.00 0.00 0.00 63 1013.3
20260506021005 66 199 1.0 3.0 0.00 0.00 0.00 62 1013.3
20260506020005 66 264 1.0 3.0 0.00 0.00 0.00 62 1013.4
20260506015005 66 244 1.0 3.0 0.00 0.00 0.00 61 1013.3
20260506014004 66 254 1.0 2.0 0.00 0.00 0.00 60 1013.3
20260506013004 66 195 1.0 2.0 0.00 0.00 0.00 61 1013.3